STARLINK-1549, 46074

Orbit data source: Space-Track

STARLINK-1549, 46074 is a payload satellite owned by SpaceX/Seattle (US) in LEO that was launched on Fri, 07 Aug 2020 UTC via an FALCON 9 launch vehicle from the Air Force Eastern Test Range (AFETR). Payload-class satellites include a variety of spacecraft equipped with specific instruments for various scientific and technological missions. These include communications satellites like Starlink; space stations such as the ISS; scientific satellites like the Hubble; Earth observation satellites from companies like Planet Labs, Umbra, and HawkEye 360; GPS; miniature CubeSats for education and research; and military/defense satellites.

Loading next visibility...
Identifier
46074, 2020-055AZ
Orbit
LEO
Country
Flag of USUS
Related business
Manufacturer
SpaceX/Seattle
Mission
Partially operational Commercial Communications
Bus & Motor
STARLINK, Unknown motor
Mass
260 kg wet, ~248 kg dry
Launch date (UTC)
2020-08-07 (6 years ago)
Launch vehicle
FALCON 9
Launch site
Air Force Eastern Test Range (AFETR)
Object type
Payload
Rocket body
Debris
Shape & HBR
Box + 1 Pan, 10.1 m
Radar Cross Section
13.562 m², Large (>1 m²)

Expand to show TLE details & history
Last TLE update: 9 hours ago

TLE from 9 hours ago
0 STARLINK-1549
1 46074U 20055AZ  26219.93374471  .00030914  00000-0  86722-3 0  9996
2 46074  53.0470 116.5752 0002270 128.2381 231.8826 15.36331233332395
Epoch: 2026-08-07T22:24Z
TLE epoch observation values (Epoch: 2026-08-07T22:24:35.542Z)
Latitude
-0.00001°
Longitude
-176.02522°
Altitude
458.817 km
Speed
7.638 km/s
True Right ascension
07h 46m 18s
True Declination
0° 00' 00"
Sunlit
Object was in daylight at epoch
Visualization orbit readout
Latitude
Unknown
Longitude
Unknown
Altitude
Unknown
Speed
Unknown
Apparent Right ascension
Unknown
Apparent Declination
Unknown
Sunlit
N/A
Visualization observer readout
Local Sidereal Time
21:21:39
Azimuth
Unknown
Elevation
Unknown
Doppler factor
Unknown
Orbital elements
Apogee altitude
458.796 km
Perigee altitude
455.693 km
Semi-major axis
6,835.382 km
Eccentricity
0.00023
Inclination
53.047°
RAAN
116.5752°
Arg. of periapsis
128.2381°
True anomaly
231.86214°
Mean anomaly
231.8826°
Eccentric anomaly
231.87237°
Mean motion
3.8406 °/min
Orbital period
93.74 mins
BSTAR
0.00086722
Loading maneuver chart data...
Computing Atmospheric mass density...
Loading historical data...
Loading historical data...
Loading historical data...
Loading historical data...
Loading historical data...
Loading historical data...
Loading historical data...

Documentation

Showing up to 5 results
|